Theta_e
327 328 330 329 330 329 329 330 331 329 323 327 329 329 329 328 334 336 337 337 337 337 334 335 334 333 332 332 333 334 333 332 333 333 333 333 330 323 321 319 318 318 318 317
325 329 325 325 327 328 330 330 331 327 324 325 328 329 328 326 330 333 335 337 337 336 329 327 328 326 326 325 325 326 328 329 330 330 330 327 323 318 316 315 315 315 315 315
325 324 324 325 326 326 325 328 331 330 326 324 326 330 327 325 324 327 333 335 336 334 329 324 321 321 320 319 319 318 321 322 323 326 326 321 316 314 313 311 308 308 308 307
323 321 324 327 327 325 326 325 329 327 329 334 327 335 331 328 325 324 331 334 335 332 327 322 318 317 315 312 312 313 315 316 317 318 318 319 318 314 308 306 303 302 303 302
319 323 324 327 326 327 328 328 329 328 331 331 330 335 331 326 328 325 327 331 333 327 322 317 315 311 309 309 308 308 310 311 312 313 313 312 309 307 304 303 302 300 300 299
314 314 317 325 325 327 326 328 325 327 330 331 330 333 333 328 327 325 319 321 321 318 316 313 310 309 307 306 306 305 305 305 307 309 307 307 305 303 302 302 300 299 297 297
316 316 319 322 326 325 325 329 329 331 329 335 323 332 331 326 322 322 318 316 316 314 313 311 309 308 306 305 304 303 303 303 304 305 305 304 303 301 300 298 297 297 296 295
318 323 319 322 323 326 327 327 331 334 334 329 323 332 331 319 317 315 314 314 314 313 311 310 308 306 304 303 302 302 302 301 300 301 301 301 300 298 296 295 295 294 294 293
321 321 318 320 321 323 325 327 317 318 315 328 327 322 321 317 315 313 313 313 313 311 310 307 305 305 303 301 301 301 300 300 300 298 298 297 295 295 295 294 294 293 293 292
316 322 318 320 320 319 323 318 324 323 328 332 324 321 328 322 318 315 314 313 311 309 308 306 303 302 301 301 300 301 300 298 298 297 296 295 295 294 293 293 293 292 291 290
315 316 319 319 319 322 321 322 320 321 321 327 325 325 312 316 318 315 314 312 311 310 308 306 304 303 302 303 303 303 301 298 297 295 295 294 294 293 292 292 291 290 288 287
314 316 321 316 313 313 319 320 319 331 325 317 320 320 308 310 318 315 313 312 311 310 309 307 304 304 304 302 300 299 297 296 294 294 293 293 292 292 291 290 288 287 286 286
315 317 321 319 318 316 319 317 316 316 319 320 328 318 308 308 318 314 311 310 310 310 309 307 304 303 302 299 297 295 294 293 293 293 292 292 291 290 288 287 286 286 285 285
314 315 318 322 321 318 320 317 315 319 329 321 322 313 310 309 311 317 314 313 314 312 309 308 305 301 298 297 295 294 292 292 292 292 291 290 289 288 287 286 285 285 284 284
312 316 314 313 312 314 318 318 318 320 319 326 323 316 311 310 309 315 316 315 313 311 308 305 303 301 298 296 294 293 291 292 291 290 290 288 287 286 285 285 284 284 284 283
309 312 313 313 313 317 316 316 319 316 316 319 311 312 309 308 307 308 309 311 312 311 309 306 302 298 295 294 293 292 292 292 291 289 288 287 286 285 285 284 284 283 283 282
311 312 316 318 311 316 319 316 318 316 315 316 313 311 309 308 307 308 309 309 310 309 306 304 301 297 295 294 292 292 291 290 289 288 287 286 285 285 284 283 283 282 282 281
310 308 312 316 312 322 308 302 316 315 312 315 308 308 309 308 305 305 307 308 307 306 304 303 300 297 294 294 293 292 290 289 288 288 287 286 285 284 283 282 281 281 281 280
308 307 309 319 317 307 302 301 312 314 316 310 309 308 307 304 305 304 301 302 304 304 303 301 298 296 294 293 292 291 289 289 288 287 286 285 284 282 282 281 280 280 280 279
302 304 313 305 316 317 306 301 305 310 317 310 309 308 307 305 312 309 300 298 297 296 296 296 295 294 293 292 291 290 289 288 287 286 285 284 282 281 281 280 280 280 279 279
310 302 309 307 312 306 299 301 302 318 313 303 307 307 304 308 305 300 296 294 293 293 292 293 293 292 292 291 291 290 288 288 288 286 285 283 281 281 280 280 279 279 278 278
313 311 306 297 307 311 295 300 310 302 299 300 303 302 301 299 298 297 296 294 293 291 290 291 291 291 291 290 289 289 288 288 286 285 283 282 281 280 280 279 279 278 277 276
306 300 307 303 304 294 294 298 297 296 300 299 301 299 299 298 298 297 296 294 292 292 290 291 291 290 290 289 289 288 289 287 285 284 282 281 280 280 279 278 276 275 275 275
296 295 299 298 295 295 296 296 297 296 297 296 297 297 297 298 297 296 295 293 292 290 290 291 290 289 289 289 288 288 287 286 285 284 282 280 279 278 277 276 276 275 274 274
296 296 297 296 296 297 296 296 297 295 294 294 294 295 295 296 296 295 293 292 292 291 290 290 289 289 289 289 289 288 287 286 284 283 281 279 278 277 276 275 275 274 274 274
295 297 298 299 295 295 297 296 295 295 295 294 295 294 293 294 294 292 292 293 292 292 291 290 290 289 291 289 289 289 287 286 283 281 280 278 277 276 275 274 274 274 273 273
Wind_Speed
6 4 10 19 4 4 9 20 11 14 5 8 13 11 10 4 5 9 10 11 12 14 10 14 12 11 11 9 10 11 10 10 10 8 7 6 6 6 6 7 8 7 7 7
5 10 12 10 9 1 1 13 19 1 2 5 9 13 11 7 7 11 12 13 14 13 11 10 11 10 9 9 9 10 11 10 10 9 8 7 10 9 9 9 10 9 9 9
8 2 8 9 9 8 9 10 8 6 7 4 6 12 9 8 7 6 10 12 13 14 13 10 10 9 9 9 9 10 9 9 8 10 11 13 14 11 8 8 10 11 11 11
7 13 9 7 16 15 14 18 6 10 11 6 11 6 14 14 11 9 10 13 14 13 11 11 12 11 9 8 9 10 11 11 11 11 10 11 9 9 7 8 10 11 12 12
2 4 18 17 18 17 8 14 9 7 8 4 7 9 11 11 16 11 13 12 13 12 12 12 13 13 11 10 9 11 13 14 12 12 10 11 13 13 10 9 9 11 13 13
6 4 6 9 4 17 14 11 4 3 3 5 10 15 12 8 13 13 9 10 10 11 11 13 14 15 15 13 12 12 13 16 17 19 17 16 16 12 10 9 9 9 11 12
2 4 5 3 7 6 3 13 2 2 3 2 1 10 11 1 4 8 14 12 12 12 12 12 15 16 16 16 15 15 17 17 19 21 21 17 15 15 10 8 10 8 9 9
7 5 6 5 8 5 12 7 4 5 5 3 2 6 5 3 2 3 10 13 14 14 12 12 13 15 16 15 17 21 19 17 14 18 20 18 13 14 12 10 10 10 9 9
3 5 2 1 2 12 5 7 1 5 3 3 4 2 7 3 6 11 15 16 15 16 14 14 14 13 16 14 16 21 19 18 18 14 16 17 12 12 11 10 9 9 8 8
3 3 1 1 2 7 6 9 3 2 7 4 4 3 7 10 11 13 16 16 16 16 16 15 15 12 11 20 12 20 19 17 16 11 13 14 12 10 8 8 9 8 8 8
7 2 1 1 1 6 5 4 2 4 1 3 4 3 1 10 14 15 15 16 17 17 16 13 16 19 10 17 11 14 13 14 15 13 12 12 10 9 6 7 7 8 7 8
8 2 3 1 5 4 1 5 4 3 5 0 1 1 1 3 13 15 16 16 16 15 15 13 18 24 19 15 15 16 17 18 15 13 11 10 8 6 4 5 6 7 9 10
9 4 2 1 2 2 1 4 3 4 2 2 3 3 3 4 12 16 18 15 13 12 11 11 15 17 19 17 16 16 16 16 15 13 11 8 7 5 4 5 7 8 8 8
10 3 2 1 3 2 4 3 2 2 3 6 3 4 8 8 13 16 17 18 17 12 13 11 11 13 13 13 14 14 15 16 15 12 10 8 7 5 5 6 6 6 6 7
5 8 4 3 4 2 7 13 7 4 5 4 5 5 3 11 13 15 15 15 16 15 14 13 13 18 17 15 14 14 14 15 13 11 9 7 5 5 5 4 4 5 5 5
1 4 5 2 2 3 2 11 10 3 4 2 2 4 3 5 10 12 15 16 16 16 16 16 16 17 18 18 17 17 17 16 14 11 9 7 6 4 3 3 2 3 3 3
4 6 4 4 2 5 2 8 8 4 5 3 3 2 5 5 8 12 15 17 17 16 15 15 16 19 19 19 19 17 17 16 13 10 8 6 4 3 2 2 1 1 1 1
7 5 2 5 2 4 1 3 11 7 6 8 3 2 3 5 5 5 5 11 10 11 12 12 16 17 19 21 19 18 18 15 12 10 8 6 4 4 4 3 2 2 1 1
4 4 4 5 2 4 1 5 8 11 10 11 9 5 6 6 4 3 3 2 4 5 10 13 19 21 23 24 22 20 17 14 12 10 9 8 8 7 6 5 4 3 2 3
5 6 3 2 4 4 2 0 1 4 5 9 11 11 10 7 5 3 3 2 4 5 8 14 19 21 23 23 21 18 15 14 13 12 11 10 9 8 8 7 5 4 4 4
4 3 4 4 2 3 2 1 0 7 2 0 6 11 9 5 2 5 6 4 5 5 9 14 18 23 24 21 20 19 16 16 13 13 12 11 10 9 8 7 6 6 6 6
3 3 3 2 2 3 4 3 6 2 2 1 5 5 7 8 7 7 6 7 9 10 12 16 17 18 20 20 19 18 17 14 14 14 13 11 11 10 9 8 8 8 7 6
2 2 2 1 2 2 1 2 2 1 0 1 6 5 8 8 5 7 6 7 8 10 11 14 16 18 17 19 19 18 16 16 16 15 13 12 12 11 11 10 9 8 8 7
1 1 2 1 1 1 2 0 1 0 2 4 7 9 5 7 8 6 6 6 8 11 13 16 16 18 19 18 18 19 15 16 17 16 15 15 14 13 12 11 10 10 9 8
2 2 3 2 0 1 2 2 3 3 4 6 4 4 6 6 4 3 4 6 11 14 16 17 20 21 21 18 20 19 19 18 19 18 16 16 15 14 13 14 12 11 10 9
3 2 1 2 2 1 2 5 3 4 3 3 5 4 3 4 6 6 5 7 9 13 14 17 20 21 23 20 20 21 22 21 22 19 18 18 17 16 14 13 11 12 11 8
Wind_Direction
179 192 215 215 182 70 167 201 201 197 169 199 214 226 236 184 195 205 187 185 181 185 166 186 178 177 173 177 183 185 188 196 186 183 176 169 151 123 104 91 86 71 58 48
214 223 209 197 143 101 110 190 207 132 336 220 222 236 238 201 216 218 194 187 186 168 170 160 164 156 164 159 166 171 178 185 188 183 170 152 141 115 103 91 80 69 62 59
218 293 179 161 181 191 248 264 170 164 171 263 232 242 219 216 219 212 211 192 190 186 171 159 153 147 145 146 148 154 161 160 161 166 160 139 127 117 100 84 78 70 67 63
284 229 210 182 201 176 215 221 193 144 161 198 220 245 211 211 203 202 198 194 187 182 172 155 147 138 130 121 128 136 141 140 147 151 148 149 149 137 116 104 91 79 72 66
36 256 199 202 206 191 220 159 165 161 180 132 201 231 211 196 213 198 194 192 183 174 166 151 138 127 117 112 112 117 122 122 120 125 130 132 117 113 114 107 95 83 74 68
271 286 264 202 141 191 137 111 51 139 173 210 194 213 220 191 203 195 180 174 163 153 142 131 127 125 116 112 106 103 105 105 111 113 104 107 110 105 107 105 95 85 81 68
289 277 287 235 145 140 137 160 154 144 192 226 316 210 243 199 214 219 182 162 150 144 141 138 136 130 125 121 115 110 111 105 109 111 109 108 111 111 104 103 102 95 71 55
187 229 207 173 204 173 183 175 182 165 180 143 311 217 219 313 329 121 141 142 140 138 135 131 127 126 121 116 116 115 108 101 88 105 109 104 114 115 110 101 87 77 65 48
219 240 309 321 300 166 159 197 108 104 29 148 201 296 272 165 163 148 143 148 144 137 132 123 116 117 115 106 113 113 109 101 101 99 104 109 107 104 102 94 87 70 60 48
156 274 39 156 271 72 208 139 103 35 153 209 194 258 226 201 183 165 156 152 143 135 129 122 101 90 110 111 113 109 111 108 99 119 118 114 106 101 97 90 75 68 56 51
149 4 38 341 250 174 151 158 87 104 305 175 162 214 181 204 181 171 160 154 149 143 134 133 122 124 137 111 114 104 124 140 140 144 131 123 119 110 91 72 67 62 59 58
205 119 282 308 290 282 306 138 158 180 180 214 352 104 86 171 174 170 153 151 151 148 147 141 149 153 155 158 158 151 155 154 156 142 129 126 119 107 99 83 75 72 63 58
160 162 194 133 125 30 185 162 130 112 80 190 172 132 138 137 173 167 149 155 165 157 157 159 163 175 169 171 167 162 160 155 149 152 148 138 129 130 112 86 68 65 64 60
158 139 248 144 105 124 164 159 142 84 140 158 236 140 187 181 181 178 172 168 166 162 161 165 174 173 170 171 169 166 164 161 158 156 156 155 148 132 100 83 79 70 61 53
206 178 182 59 11 3 158 166 160 187 188 169 203 210 164 186 183 185 180 179 176 174 174 178 180 177 173 173 172 169 166 163 163 164 161 156 141 125 110 94 78 62 52 48
126 158 144 73 356 81 348 161 156 145 184 134 3 275 138 104 134 157 172 176 189 192 186 182 175 171 172 176 176 173 170 172 173 172 168 161 154 138 116 94 78 69 63 50
131 150 144 136 64 98 271 196 181 179 236 155 187 261 147 158 184 183 182 186 190 188 179 174 177 174 175 181 180 176 176 176 175 174 172 167 160 157 158 161 161 140 79 33
148 144 44 110 104 208 23 293 200 216 241 226 305 301 136 123 104 113 173 182 175 171 171 168 166 172 181 185 182 180 180 178 179 183 184 183 188 198 203 205 211 224 236 281
201 137 99 141 111 297 184 199 177 183 223 205 219 164 121 125 120 76 70 92 125 145 158 168 176 176 184 184 185 184 180 182 189 196 198 204 207 210 212 217 220 232 252 280
122 57 88 159 132 163 10 207 214 155 279 186 178 176 158 162 157 151 136 85 97 123 162 172 178 181 178 182 185 183 186 194 201 206 209 213 217 216 217 222 232 245 263 264
86 44 138 140 134 292 247 227 155 172 259 303 177 160 153 162 35 98 109 83 102 123 148 162 171 175 182 181 186 193 198 209 213 215 216 217 218 221 226 233 239 248 250 252
124 144 132 116 136 205 145 115 191 3 344 269 128 124 108 111 116 117 121 135 140 138 146 160 162 172 179 188 193 203 214 218 219 217 220 222 224 223 228 238 243 243 244 244
106 42 118 226 92 18 27 331 337 312 284 164 124 128 134 130 135 144 153 162 165 165 165 175 178 181 193 199 206 215 226 223 217 216 223 227 227 229 234 231 232 236 238 237
79 154 73 109 12 118 199 262 300 51 89 86 108 123 134 134 152 155 163 181 185 189 194 196 197 205 211 214 219 228 231 226 222 220 223 229 228 228 228 231 233 229 227 224
39 152 137 81 207 139 226 254 160 116 110 108 83 82 90 109 148 170 187 205 214 215 214 212 215 222 228 229 232 232 232 227 224 224 223 226 228 227 229 230 229 230 235 228
188 157 201 133 138 328 143 163 139 122 115 97 87 76 88 149 172 187 218 238 244 244 238 234 236 239 245 242 243 241 236 233 228 225 225 226 226 225 224 227 234 237 233 226